[[{"header":{"parameterUnit":"m.s-1","parameterCategory":1,"la1":30.2991,"la2":30.254,"lo1":-89.0895,"lo2":-89.0444,"dy":0.0017,"dx":0.0017,"nx":28,"ny":28,"refTime":"2025-11-04T03:00:00:Z","depth":0,"parameterNumber":2,"parameterNumberName":"U-component_of_WINDS"},"data":[0,0,0,0,0,0,0,0,0,0,0,0,0,0,0,0,0,0,0,0,0,0,0,0,0,0,0,0,0,0,0,0,0,0,0,0,0,0,0,0,0,0,0,0,0,0,0,0,0,0,0,0,0,0,0,0,0,0,-3.1176,-3.1176,0,-3.1161,-3.1161,-3.116,-3.1056,-3.1054,-3.1051,-3.1049,-3.1037,-3.1039,-3.1041,0,0,0,0,0,0,0,0,0,0,0,0,0,-3.112,-3.1122,-3.1176,-3.1176,-3.1176,-3.1161,-3.1161,-3.116,-3.1057,-3.1054,-3.105,-3.1047,-3.1036,-3.1038,-3.1041,0,0,0,0,0,0,0,0,0,0,0,0,0,-3.1129,-3.1122,-3.1176,-3.1122,-3.1117,-3.1161,-3.1161,-3.116,-3.1057,-3.1053,-3.105,-3.1046,-3.1035,-3.1038,-3.1041,-3.1137,0,0,-3.1051,-3.1052,0,0,0,0,0,0,0,0,-3.1128,-3.1131,-3.113,-3.1126,-3.112,-3.1106,-3.1136,-3.1153,-3.1058,-3.108,-3.1049,-3.1044,-3.1063,-3.1064,-3.1069,-3.1136,-3.1136,-3.1051,-3.1053,-3.1054,-3.1055,0,0,0,0,0,0,0,-3.1128,-3.1131,-3.117,-3.113,-3.1124,-3.11,-3.1097,-3.1139,-3.1094,-3.1078,-3.107,-3.107,-3.106,-3.1067,-3.1068,-3.1136,-3.1051,-3.1054,-3.1056,-3.1057,-3.1283,-3.1287,0,0,0,0,0,0,-3.1134,-3.1131,-3.1171,-3.117,-3.1115,-3.1104,-3.1101,-3.1115,-3.1093,-3.1086,-3.1073,-3.1065,-3.1063,-3.1065,-3.1068,-3.118,-3.1054,-3.1057,-3.1059,-3.1279,-3.1284,-3.1288,0,0,0,0,0,0,-3.1133,-3.1139,-3.1171,-3.1148,-3.1151,-3.1109,-3.1126,-3.1117,-3.1123,-3.1089,-3.1081,-3.1088,-3.106,-3.1063,-3.1121,-3.1178,-3.1058,-3.1061,-3.1274,-3.128,-3.1286,-3.1404,0,0,0,0,0,0,-3.1132,-3.1139,-3.1174,-3.115,-3.1152,-3.1224,-3.1129,-3.1119,-3.1128,-3.1118,-3.1101,-3.1094,-3.1058,-3.1117,-3.1124,-3.118,-3.1064,-3.1269,-3.1277,-3.1284,-3.1395,-3.1414,-3.143,0,0,0,0,0,-3.1131,-3.1208,-3.1176,-3.1181,-3.1195,-3.1227,-3.1229,-3.1183,-3.1133,-3.1169,-3.1147,-3.1095,-3.117,-3.1123,-3.1131,-3.1189,-3.1265,-3.1275,-3.1284,-3.1387,-3.141,-3.1429,0,0,0,0,0,0,-3.1241,-3.1204,-3.1168,-3.124,-3.1237,-3.1209,-3.1253,-3.1209,-3.1221,-3.1211,-3.1155,-3.1153,-3.1219,-3.1209,-3.1158,-3.1281,-3.1209,-3.122,-3.1285,-3.1307,-3.1324,-3.1325,-3.1066,0,0,0,0,0,-3.1273,-3.1301,-3.1268,-3.1334,-3.1335,-3.1295,-3.1307,-3.1272,-3.1268,-3.1267,-3.1249,-3.1248,-3.1272,-3.1288,-3.1308,-3.1393,-3.1389,-3.1437,-3.1454,-3.1468,-3.1479,-3.1526,-3.1547,-3.1319,-3.1319,-3.1319,0,0,-3.1341,-3.1324,-3.1345,-3.1356,-3.135,-3.1382,-3.1294,-3.1331,-3.1355,-3.1273,-3.1326,-3.1314,-3.1309,-3.1381,-3.1412,-3.1375,-3.1541,-3.148,-3.1492,-3.1495,-3.1538,-3.156,-3.1579,-3.1326,-3.1324,-3.1323,0,0,-3.148,-3.147,-3.1525,-3.1521,-3.1513,-3.1486,-3.1499,-3.1478,-3.1467,-3.1519,-3.1458,-3.1487,-3.1528,-3.1528,-3.1533,-3.1675,-3.1629,-3.1683,-3.1774,-3.182,-3.1838,-3.1854,-3.1907,-3.1926,-3.1694,-3.1694,-3.1694,0,-3.1566,-3.161,-3.1559,-3.1601,-3.1609,-3.1534,-3.1591,-3.159,-3.159,-3.1598,-3.1556,-3.1607,-3.1598,-3.1671,-3.1706,-3.1712,-3.1727,-3.1685,-3.184,-3.1855,-3.1869,-3.1919,-3.1938,-3.1701,-3.17,-3.1699,-3.1699,0,-3.1717,-3.1749,-3.1795,-3.1796,-3.1808,-3.1857,-3.1815,-3.1835,-3.18,-3.1778,-3.1834,-3.1821,-3.1838,-3.1852,-3.1818,-3.1921,-3.1898,-3.1849,-3.1775,-3.1898,-3.1944,-3.1963,-3.1711,-3.1708,-3.1706,-3.1704,0,0,-3.1925,-3.1898,-3.1916,-3.1916,-3.1902,-3.1927,-3.1974,-3.1989,-3.2008,-3.2011,-3.205,-3.2087,-3.2042,-3.2049,-3.2014,-3.2055,-3.2171,-3.2,-3.1999,-3.2034,-3.2286,-3.2325,-3.2347,-3.2139,-3.2143,-3.2145,-3.2287,0,-3.2061,-3.2138,-3.2094,-3.2178,-3.2209,-3.214,-3.2181,-3.2178,-3.2159,-3.2184,-3.2163,-3.2191,-3.2128,-3.2132,-3.2168,-3.2149,-3.2221,-3.2138,-3.2178,-3.218,-3.2183,-3.2371,-3.2411,-3.2545,-3.2304,-3.2307,-3.231,0,-3.2229,-3.2239,-3.2326,-3.2308,-3.2319,-3.2357,-3.2369,-3.2392,-3.2389,-3.2372,-3.2381,-3.2337,-3.2384,-3.231,-3.2375,-3.232,-3.2334,-3.2327,-3.2331,-3.2334,-3.2253,-3.2381,-3.2587,-3.2608,-3.2337,-3.2335,-3.2333,0,-3.2375,-3.2409,-3.2467,-3.2469,-3.2449,-3.2478,-3.2471,-3.2464,-3.2477,-3.2488,-3.2496,-3.2513,-3.2522,-3.2537,-3.25,-3.245,-3.2572,-3.2494,-3.2561,-3.2563,-3.2591,-3.259,-3.2804,-3.2598,-3.2597,-3.2597,-3.2597,0,-3.2532,-3.2588,-3.2532,-3.2567,-3.263,-3.258,-3.2643,-3.2629,-3.2624,-3.2657,-3.2598,-3.2631,-3.2579,-3.2607,-3.2579,-3.2639,-3.2643,-3.2633,-3.2625,-3.2639,-3.2641,-3.2648,-3.2639,-3.2602,-3.2601,-3.26,-3.2599,0,-3.2705,-3.2669,-3.2728,-3.2705,-3.27,-3.2748,-3.2729,-3.2762,-3.2739,-3.2782,-3.2789,-3.2754,-3.2784,-3.2749,-3.2776,-3.2757,-3.2839,-3.2816,-3.284,-3.2834,-3.2904,-3.2899,-3.3132,-3.3161,-3.2934,-3.2937,-3.2938,0,-3.2808,-3.285,-3.2832,-3.285,-3.2846,-3.2875,-3.2888,-3.2841,-3.2858,-3.2858,-3.2892,-3.2917,-3.2934,-3.2987,-3.2965,-3.2986,-3.2965,-3.3045,-3.2968,-3.2982,-3.2969,-3.2968,-3.2973,-3.3062,-3.3064,-3.3066,-3.3068,0,-3.2996,-3.2977,-3.2997,-3.3012,-3.3029,-3.3039,-3.3044,-3.3062,-3.3014,-3.3036,-3.3065,-3.3079,-3.3107,-3.3134,-3.315,-3.3145,-3.31,-3.3093,-3.311,-3.3125,-3.3138,-3.3134,-3.2885,-3.3088,-3.3086,-3.3084,-3.3083,-3.3082,-3.3139,-3.3174,-3.3167,-3.3192,-3.3191,-3.3198,-3.3229,-3.321,-3.3234,-3.3252,-3.3224,-3.3262,-3.326,-3.3276,-3.3276,-3.3307,-3.3273,-3.3297,-3.3303,-3.3311,-3.3322,-3.3132,-3.3309,-3.3309,-3.3308,-3.3308,-3.3307,0,-3.3325,-3.3317,-3.3341,-3.3351,-3.3371,-3.3325,-3.333,-3.3351,-3.3385,-3.3386,-3.3405,-3.3441,-3.3467,-3.3448,-3.347,-3.3499,-3.3479,-3.3506,-3.3505,-3.3505,-3.335,-3.3334,-3.3522,-3.3522,-3.3522,-3.3522,-3.3522,-3.3522,-3.3424,-3.3482,-3.3462,-3.352,-3.3512,-3.3548,-3.3555,-3.3562,-3.3563,-3.3605,-3.3626,-3.3613,-3.3607,-3.3629,-3.3652,-3.3646,-3.3658,-3.3693,-3.368,-3.3537,-3.3516,-3.3495,-3.348,-3.3696,-3.3696,-3.3833,-3.3834,-3.3835]},{"header":{"parameterUnit":"m.s-1","parameterCategory":1,"la1":30.2991,"la2":30.254,"lo1":-89.0895,"lo2":-89.0444,"dy":0.0017,"dx":0.0017,"nx":28,"ny":28,"refTime":"2025-11-04T03:00:00:Z","depth":0,"parameterNumber":3,"parameterNumberName":"V-component_of_WINDS"},"data":[0,0,0,0,0,0,0,0,0,0,0,0,0,0,0,0,0,0,0,0,0,0,0,0,0,0,0,0,0,0,0,0,0,0,0,0,0,0,0,0,0,0,0,0,0,0,0,0,0,0,0,0,0,0,0,0,0,0,-0.1432,-0.1432,0,-0.1478,-0.1478,-0.1479,-0.1469,-0.1469,-0.1468,-0.1467,-0.1517,-0.1519,-0.1521,0,0,0,0,0,0,0,0,0,0,0,0,0,-0.1336,-0.1338,-0.1432,-0.1432,-0.1433,-0.1478,-0.1479,-0.1479,-0.147,-0.1468,-0.1467,-0.1466,-0.1516,-0.1518,-0.1521,0,0,0,0,0,0,0,0,0,0,0,0,0,-0.1379,-0.1338,-0.1431,-0.1433,-0.1434,-0.1478,-0.1479,-0.1479,-0.147,-0.1468,-0.1467,-0.1466,-0.1515,-0.1518,-0.1521,-0.1567,0,0,-0.1531,-0.1532,0,0,0,0,0,0,0,0,-0.1377,-0.1383,-0.1432,-0.1433,-0.1434,-0.1466,-0.1463,-0.1509,-0.147,-0.1456,-0.1467,-0.1465,-0.1501,-0.1505,-0.1517,-0.1569,-0.1571,-0.1531,-0.1533,-0.1535,-0.1536,0,0,0,0,0,0,0,-0.1374,-0.1381,-0.145,-0.1433,-0.1434,-0.1432,-0.1437,-0.1472,-0.1485,-0.1457,-0.1457,-0.1462,-0.1501,-0.1514,-0.1518,-0.1572,-0.1531,-0.1534,-0.1536,-0.1537,-0.1664,-0.1665,0,0,0,0,0,0,-0.137,-0.1378,-0.1448,-0.1451,-0.1402,-0.1435,-0.144,-0.1457,-0.1485,-0.1488,-0.1463,-0.1462,-0.1509,-0.1514,-0.152,-0.1576,-0.1535,-0.1538,-0.1539,-0.1663,-0.1664,-0.1666,0,0,0,0,0,0,-0.1368,-0.1376,-0.1447,-0.1415,-0.1423,-0.1438,-0.1457,-0.1459,-0.1472,-0.1489,-0.1492,-0.1474,-0.1508,-0.1515,-0.1555,-0.1577,-0.1539,-0.1542,-0.1661,-0.1663,-0.1665,-0.1687,0,0,0,0,0,0,-0.1365,-0.1376,-0.1393,-0.1415,-0.1425,-0.1481,-0.1459,-0.1461,-0.1477,-0.1475,-0.15,-0.1503,-0.1508,-0.155,-0.1558,-0.1581,-0.1545,-0.1659,-0.1662,-0.1664,-0.1684,-0.169,-0.1694,0,0,0,0,0,-0.1362,-0.1398,-0.1394,-0.1402,-0.1447,-0.1482,-0.1488,-0.1493,-0.1479,-0.1497,-0.1508,-0.1502,-0.1573,-0.1555,-0.1563,-0.1587,-0.1658,-0.1661,-0.1664,-0.1682,-0.1689,-0.1694,0,0,0,0,0,0,-0.1379,-0.1401,-0.1397,-0.1441,-0.146,-0.148,-0.1503,-0.1499,-0.1523,-0.152,-0.1525,-0.1531,-0.1572,-0.1583,-0.1562,-0.1633,-0.1613,-0.1619,-0.1624,-0.163,-0.1635,-0.1632,-0.1547,0,0,0,0,0,-0.1387,-0.1414,-0.1431,-0.1469,-0.1478,-0.1489,-0.1504,-0.1506,-0.1526,-0.1534,-0.1548,-0.1569,-0.1595,-0.1613,-0.1639,-0.1685,-0.1691,-0.1706,-0.1711,-0.1714,-0.172,-0.1745,-0.1752,-0.1677,-0.1677,-0.1676,0,0,-0.1406,-0.1421,-0.1438,-0.1472,-0.1487,-0.1515,-0.1496,-0.1526,-0.1546,-0.1539,-0.1578,-0.1588,-0.1611,-0.1655,-0.1674,-0.1665,-0.1741,-0.1719,-0.1722,-0.1725,-0.1749,-0.1756,-0.1763,-0.1679,-0.1678,-0.1678,0,0,-0.1455,-0.1468,-0.1501,-0.1516,-0.1538,-0.1544,-0.1552,-0.1573,-0.158,-0.1618,-0.1613,-0.1638,-0.1684,-0.17,-0.1715,-0.1768,-0.1764,-0.1776,-0.1802,-0.1827,-0.1833,-0.1838,-0.1858,-0.1865,-0.178,-0.178,-0.178,0,-0.1476,-0.1516,-0.1518,-0.1549,-0.1564,-0.1557,-0.159,-0.1605,-0.1635,-0.1646,-0.1635,-0.1692,-0.1707,-0.1754,-0.1767,-0.1778,-0.1788,-0.1774,-0.1832,-0.1837,-0.1842,-0.1861,-0.1868,-0.1782,-0.1782,-0.1781,-0.1781,0,-0.1541,-0.1569,-0.1593,-0.1621,-0.1639,-0.167,-0.1678,-0.1696,-0.1695,-0.1703,-0.1742,-0.1759,-0.1788,-0.1799,-0.1799,-0.1846,-0.184,-0.183,-0.1811,-0.1851,-0.1869,-0.1876,-0.1784,-0.1783,-0.1783,-0.1782,0,0,-0.1604,-0.1631,-0.164,-0.1652,-0.1676,-0.1698,-0.1729,-0.1756,-0.1772,-0.1792,-0.1819,-0.1857,-0.1848,-0.1864,-0.1866,-0.1887,-0.1929,-0.1875,-0.1875,-0.1885,-0.1983,-0.1991,-0.1999,-0.1925,-0.1927,-0.1928,-0.1981,0,-0.1655,-0.171,-0.1712,-0.1762,-0.1788,-0.1781,-0.1808,-0.1825,-0.1833,-0.1857,-0.1865,-0.1893,-0.1878,-0.1888,-0.1909,-0.1919,-0.1949,-0.1915,-0.1951,-0.1953,-0.1948,-0.2009,-0.2018,-0.2067,-0.1988,-0.1989,-0.199,0,-0.1723,-0.1745,-0.1797,-0.1816,-0.1827,-0.1851,-0.1876,-0.1899,-0.1918,-0.1922,-0.1939,-0.1938,-0.197,-0.1948,-0.1993,-0.197,-0.1984,-0.1992,-0.1994,-0.1999,-0.1975,-0.2017,-0.2083,-0.2091,-0.2001,-0.2,-0.1999,0,-0.1765,-0.1807,-0.1844,-0.1854,-0.1877,-0.1894,-0.1904,-0.1922,-0.1938,-0.196,-0.1971,-0.1996,-0.2011,-0.203,-0.2036,-0.2019,-0.2081,-0.2059,-0.2086,-0.2086,-0.2101,-0.21,-0.2172,-0.2107,-0.2107,-0.2107,-0.2107,0,-0.1824,-0.1856,-0.1863,-0.1886,-0.1922,-0.1923,-0.1959,-0.1968,-0.1984,-0.2009,-0.2004,-0.2027,-0.2032,-0.2056,-0.206,-0.2097,-0.2103,-0.2108,-0.2109,-0.211,-0.2109,-0.2121,-0.2118,-0.2109,-0.2109,-0.2108,-0.2108,0,-0.1878,-0.1883,-0.1923,-0.194,-0.1945,-0.1971,-0.1986,-0.2008,-0.2015,-0.2046,-0.2053,-0.2064,-0.2092,-0.2099,-0.2133,-0.2135,-0.2179,-0.2176,-0.2173,-0.2173,-0.22,-0.2198,-0.2283,-0.2295,-0.2221,-0.2222,-0.2222,0,-0.1915,-0.194,-0.196,-0.1976,-0.1986,-0.2012,-0.2028,-0.203,-0.2047,-0.207,-0.209,-0.2117,-0.2139,-0.2185,-0.2196,-0.2222,-0.222,-0.2248,-0.2225,-0.2224,-0.2222,-0.2222,-0.2224,-0.2254,-0.2255,-0.2255,-0.2256,0,-0.1982,-0.1983,-0.2006,-0.203,-0.2049,-0.2068,-0.2087,-0.21,-0.2104,-0.2124,-0.2152,-0.2169,-0.2203,-0.2231,-0.2257,-0.2268,-0.2263,-0.2263,-0.2271,-0.2272,-0.227,-0.2273,-0.2187,-0.2261,-0.2261,-0.226,-0.226,-0.226,-0.203,-0.2052,-0.2069,-0.2095,-0.2108,-0.2125,-0.2146,-0.2155,-0.2178,-0.2206,-0.2205,-0.2237,-0.2254,-0.2288,-0.2301,-0.2326,-0.2317,-0.2328,-0.2331,-0.2334,-0.2337,-0.2264,-0.233,-0.233,-0.233,-0.233,-0.2329,0,-0.2098,-0.2108,-0.2131,-0.2156,-0.2177,-0.2168,-0.2188,-0.2206,-0.2233,-0.225,-0.2271,-0.2304,-0.233,-0.2342,-0.2369,-0.2386,-0.2385,-0.2393,-0.2393,-0.2396,-0.2343,-0.2334,-0.2394,-0.2394,-0.2394,-0.2394,-0.2394,-0.2394,-0.2136,-0.2172,-0.2175,-0.2218,-0.2228,-0.2258,-0.227,-0.2285,-0.2298,-0.2335,-0.2356,-0.2364,-0.2379,-0.2406,-0.243,-0.2433,-0.2443,-0.2453,-0.2455,-0.2406,-0.2399,-0.2393,-0.2385,-0.2455,-0.2455,-0.2506,-0.2507,-0.2507]}]]